Lapse_Rate
4.5 4.0 5.6 6.4 6.4 6.3 6.2 6.3 6.6 6.6 6.6 6.1 6.1 7.0 6.8 6.5 6.0 6.0 6.1 5.6 5.6 5.5 5.9 5.6 5.8 5.7 5.5 5.6 5.4 4.8 4.5 4.5 4.3 4.3 4.2 4.2 3.9 3.6 3.3 3.3 3.3 3.0 3.5 3.4 3.4 3.3 3.3
4.5 5.4 6.2 6.4 6.6 6.4 6.4 6.3 6.4 6.7 6.8 6.5 6.0 6.4 7.0 6.7 6.3 5.8 5.9 5.7 5.5 5.6 5.9 5.9 5.8 5.4 5.5 5.4 5.4 4.7 4.4 4.5 4.5 4.3 4.3 4.1 4.1 3.8 4.2 3.7 3.4 3.7 3.4 3.5 3.7 3.5 3.5
4.7 6.2 6.5 6.3 6.3 6.6 6.8 6.9 6.9 6.7 7.0 7.1 6.6 5.8 6.9 6.2 5.9 6.0 5.8 5.8 5.8 5.9 6.0 5.7 5.6 5.3 5.3 5.1 5.0 4.9 4.5 4.4 4.3 4.4 4.2 4.3 4.1 4.0 3.9 4.2 3.7 3.7 3.6 4.0 4.1 4.2 3.9
4.7 6.0 6.5 6.3 6.3 6.9 7.0 7.1 7.0 7.0 7.3 7.4 7.3 6.7 6.4 6.4 6.2 6.0 6.2 6.0 6.1 5.8 5.8 5.8 5.6 5.4 5.4 5.0 4.7 4.6 4.2 4.1 4.2 4.3 4.2 4.4 4.0 4.2 4.1 4.2 4.2 3.9 3.9 3.8 4.6 4.3 4.0
5.1 5.9 6.6 6.8 6.7 7.1 7.2 7.4 7.3 7.2 7.3 7.4 7.6 6.9 6.4 6.4 6.3 6.0 6.4 6.4 5.9 6.0 5.8 5.7 5.5 5.4 5.3 5.0 4.8 4.3 4.0 4.1 4.5 4.4 4.4 4.4 4.2 4.6 4.3 4.1 3.9 4.3 3.8 3.8 3.4 5.0 4.3
4.8 5.8 6.8 6.8 7.1 7.2 7.1 7.3 7.2 7.2 7.4 7.6 7.7 7.2 6.6 6.2 6.3 6.3 6.3 6.1 5.9 5.8 5.6 5.5 5.2 5.1 4.8 4.5 4.3 4.0 4.0 4.1 4.3 4.7 4.6 4.7 5.1 5.0 4.7 4.2 4.2 4.3 3.9 3.7 3.6 5.2 5.4
4.0 6.0 6.8 6.6 7.7 7.5 7.3 7.3 7.4 7.6 7.8 7.5 7.4 7.0 6.4 6.6 6.3 6.4 6.1 5.9 5.6 5.5 5.5 5.3 5.2 5.0 4.6 4.3 4.2 4.1 4.2 4.5 4.8 5.0 5.1 5.2 4.9 4.8 5.1 4.6 4.8 4.7 4.5 4.4 5.1 5.6 5.1
4.1 5.7 6.7 7.1 7.5 7.9 7.8 7.7 7.6 7.6 7.4 7.0 6.9 6.8 6.4 5.8 6.1 5.9 5.8 5.6 5.4 5.4 5.4 5.1 5.1 4.8 4.8 4.5 4.5 4.7 5.1 5.0 4.9 5.0 4.9 5.1 5.6 5.6 5.6 5.4 5.5 5.5 5.2 5.6 5.8 5.9 6.1
4.4 5.5 6.1 6.9 6.4 6.9 7.1 7.1 7.4 7.2 7.0 6.5 6.5 6.8 6.7 6.3 6.0 5.8 5.7 5.7 5.7 5.4 5.5 4.9 4.9 4.7 4.4 4.7 4.8 5.1 5.2 5.2 5.2 5.5 5.8 5.7 6.6 6.0 5.7 5.6 5.5 5.4 5.0 5.2 5.1 5.5 5.9
5.0 4.9 5.4 6.1 5.5 6.0 6.4 6.6 6.9 6.7 6.4 6.2 6.3 6.6 6.4 6.1 5.9 5.9 5.8 5.6 5.5 5.1 5.0 4.8 4.9 5.1 5.1 5.2 5.1 5.3 5.8 6.1 6.3 6.3 6.0 6.0 6.2 6.0 5.7 5.5 5.3 4.9 5.4 5.2 5.1 5.1 5.2
5.1 4.8 5.2 4.8 5.2 5.6 5.8 6.1 6.3 6.5 6.6 6.5 6.6 6.9 6.7 6.5 6.5 6.4 6.2 5.8 5.3 4.9 3.8 4.9 5.0 5.3 5.4 5.5 6.1 6.8 6.9 6.5 6.3 6.0 5.9 6.1 6.0 5.5 5.3 5.3 5.0 5.4 5.3 5.0 5.0 4.9 5.1
4.6 4.5 4.5 5.0 4.8 4.8 5.6 5.5 5.9 5.9 6.1 6.4 6.3 6.5 6.6 6.6 6.5 6.3 6.0 5.3 4.9 5.1 4.0 5.1 5.6 6.1 6.5 6.5 6.6 6.4 6.5 6.2 5.9 6.0 5.8 6.1 6.0 5.6 5.7 5.6 5.3 5.4 5.3 5.5 5.5 4.9 4.6
4.5 4.5 4.0 4.3 4.5 4.5 4.5 4.9 5.0 4.9 5.2 5.6 5.9 6.1 6.0 5.9 5.7 5.7 5.4 4.9 4.5 4.4 4.9 5.5 6.0 6.4 6.6 6.6 6.4 6.2 6.0 5.8 5.6 6.1 6.1 6.4 6.1 5.9 5.8 5.5 5.8 5.5 5.1 4.1 4.1 3.5 4.6
4.8 4.5 4.2 3.7 4.1 4.0 4.0 4.1 4.3 4.4 4.5 4.4 4.8 5.2 5.1 5.0 4.8 4.9 4.7 4.4 4.5 4.5 4.9 5.8 6.4 6.6 6.3 6.4 6.4 6.2 6.0 5.9 5.9 5.3 5.3 5.6 6.1 5.7 5.7 5.5 5.4 5.5 5.0 4.9 5.0 5.4 5.8
4.0 4.6 4.4 4.1 3.8 3.6 3.4 3.6 3.7 3.6 3.6 3.8 4.0 3.9 4.0 4.1 4.1 4.1 4.1 4.1 4.3 4.8 5.4 6.3 6.5 6.4 6.2 6.5 6.5 6.4 6.3 6.0 5.7 5.9 5.6 5.4 6.0 6.1 5.8 5.7 5.6 5.8 5.4 5.3 4.8 5.0 5.1
4.6 4.0 4.3 4.1 3.8 3.9 3.9 3.5 3.3 3.2 3.2 3.1 3.0 3.1 3.4 3.5 3.4 3.8 4.3 4.2 4.3 5.2 6.0 6.4 6.2 6.5 6.4 6.7 6.8 6.8 6.4 6.1 6.0 5.8 5.1 5.3 5.8 6.2 6.2 6.3 6.1 5.9 5.6 5.1 4.8 4.9 6.2
4.6 4.7 4.0 3.8 3.7 3.4 3.4 3.5 3.1 2.8 2.0 2.4 2.6 2.8 3.1 3.2 3.4 3.6 3.8 3.9 4.5 5.3 6.1 6.3 6.1 6.2 6.3 6.7 7.1 6.8 6.5 6.1 6.1 5.7 5.5 5.2 5.5 6.8 6.5 6.1 6.1 6.0 5.9 5.8 5.7 5.6 6.0
4.9 4.5 4.9 4.5 4.0 3.4 3.6 3.5 3.8 3.3 2.9 2.6 3.0 2.8 2.9 3.1 3.2 3.4 3.4 3.4 4.1 4.9 5.6 5.9 6.0 6.2 6.4 6.9 7.0 6.8 6.5 6.3 6.0 5.9 6.0 5.6 5.5 6.0 6.7 6.4 6.2 6.2 6.1 5.9 5.9 5.9 5.6
4.7 4.8 4.5 4.7 4.7 4.2 3.7 3.7 3.8 3.9 3.8 3.6 3.6 2.9 3.0 2.9 2.8 3.4 3.2 3.5 3.9 4.6 5.1 5.4 5.6 6.1 6.4 6.4 6.5 6.6 6.6 6.1 6.0 5.8 5.9 5.8 5.9 6.0 6.8 6.6 6.3 6.0 6.1 6.0 5.9 5.7 5.3
4.5 4.9 4.9 4.4 4.6 4.9 4.5 4.0 3.9 3.7 3.6 3.9 3.8 3.6 2.9 3.0 2.5 2.7 3.2 3.4 3.7 4.2 4.9 5.1 5.4 5.8 5.8 5.7 6.1 6.1 6.3 6.1 5.8 5.8 5.8 5.6 5.7 5.8 5.8 6.0 5.7 5.6 6.0 5.9 5.6 5.3 5.4
4.5 4.5 4.5 4.5 4.2 4.2 4.4 4.4 4.0 3.9 4.0 3.7 3.8 3.6 3.2 3.0 2.8 2.4 2.9 3.5 3.8 3.6 4.1 4.6 4.7 5.1 5.7 5.9 5.9 5.8 6.0 6.2 5.8 5.7 5.7 5.8 5.8 5.9 6.0 5.8 5.9 5.9 5.6 5.9 5.7 5.3 5.0
4.4 4.3 4.3 4.2 4.2 4.4 4.3 4.1 4.2 4.0 4.2 4.1 3.7 3.7 3.8 3.6 3.3 2.9 2.9 3.1 3.7 3.9 3.7 4.0 4.2 4.7 5.2 5.7 5.9 6.3 6.3 6.4 6.0 5.7 5.7 5.8 5.8 5.7 6.1 6.0 5.9 6.0 5.8 5.9 5.5 5.4 5.0
4.5 4.4 4.2 4.3 4.4 4.2 4.0 3.9 4.1 4.2 4.4 4.5 4.2 4.2 4.0 3.9 3.6 3.5 2.9 3.2 3.2 3.7 3.9 3.8 3.8 4.3 4.7 5.1 5.5 5.9 6.0 6.2 6.2 6.2 5.9 5.8 5.8 5.7 6.1 5.9 6.0 6.0 5.6 5.3 5.6 5.0 4.9
4.3 4.4 4.3 4.1 4.4 4.6 4.3 4.2 4.1 4.5 4.1 4.3 4.5 4.4 4.3 4.2 4.0 3.7 3.7 3.3 3.4 3.2 3.5 3.9 3.9 3.8 4.2 4.5 5.0 5.2 5.5 5.8 6.0 6.0 6.0 5.9 5.8 5.7 6.1 6.2 4.7 6.0 5.6 5.7 5.2 5.4 4.8
4.3 4.3 4.3 4.4 4.3 4.3 4.6 4.6 4.4 4.3 4.2 4.1 4.3 4.4 4.6 4.5 4.4 4.3 3.9 3.9 3.5 3.4 3.4 3.6 3.8 3.9 4.0 4.2 4.5 4.7 4.7 5.0 5.4 5.6 5.8 5.9 5.8 5.8 5.9 5.9 6.0 6.1 5.9 5.4 5.5 5.5 5.8
4.4 4.4 4.2 4.2 4.3 4.4 4.4 4.4 4.6 4.7 4.4 4.3 4.2 4.3 4.4 4.5 4.7 4.5 4.5 4.3 4.0 3.9 3.6 3.6 3.6 3.8 3.8 3.9 4.3 4.1 4.2 4.7 4.6 4.9 5.2 5.3 5.5 5.5 5.9 5.9 5.2 6.6 6.1 5.4 5.3 5.2 5.3
4.4 4.5 4.3 4.3 4.2 4.4 4.4 4.4 4.5 4.8 4.4 4.3 4.4 4.3 4.2 4.4 4.6 4.7 4.6 4.5 4.4 4.0 3.9 3.6 3.5 3.6 3.7 3.7 3.8 3.6 3.9 4.1 4.4 4.6 4.7 5.0 5.1 5.4 5.6 5.8 6.3 6.5 6.1 5.5 5.4 5.1 5.0
3.9 4.2 4.3 4.5 4.5 4.6 4.6 4.4 4.5 4.7 4.9 4.7 4.5 4.4 4.4 4.3 4.3 4.6 4.7 4.8 4.7 4.6 4.2 3.9 3.5 3.4 3.4 3.4 3.3 3.2 3.5 3.9 3.9 4.5 4.6 4.7 4.9 5.0 5.1 5.3 5.5 6.2 6.0 5.7 5.7 5.6 5.4
4.0 4.1 4.3 4.5 4.7 4.6 4.6 4.6 4.7 4.6 4.9 5.0 4.8 4.5 4.5 4.7 4.6 4.5 4.4 4.8 4.7 4.8 4.5 4.2 3.7 3.4 3.4 3.4 3.0 2.9 3.1 3.6 3.7 3.9 4.4 4.5 4.9 4.9 5.1 5.5 5.7 5.6 5.5 5.5 5.5 5.3 5.1
Wind_Speed
31 32 27 25 21 20 20 20 19 18 17 16 19 19 18 14 21 20 16 10 7 8 11 8 5 2 0 2 2 5 7 4 3 3 2 3 4 2 3 4 6 10 13 14 15 16 12
31 28 26 25 21 18 15 17 18 15 16 15 17 16 16 16 7 15 13 8 10 11 9 7 5 3 1 5 5 8 3 2 3 1 2 1 2 4 3 3 3 5 10 9 7 10 10
32 30 26 23 21 19 17 18 15 14 13 13 15 15 16 17 11 17 14 13 11 10 9 7 7 3 1 4 5 6 1 0 3 3 3 3 4 4 6 5 5 7 8 12 12 9 9
30 30 27 23 20 19 18 18 14 12 12 12 14 16 13 19 25 18 13 12 12 11 10 7 7 1 3 2 4 2 3 3 3 1 2 5 4 3 0 5 6 5 5 5 1 8 10
31 27 27 23 18 18 19 17 13 9 11 12 13 13 12 21 23 16 14 10 10 11 8 9 4 1 3 1 1 1 3 3 6 3 1 1 2 2 3 1 3 3 4 7 7 6 7
33 27 21 23 15 14 13 15 8 8 12 15 17 14 6 23 21 15 14 11 13 12 7 6 3 4 1 3 2 2 0 3 2 6 2 1 1 1 2 3 4 5 7 7 11 4 13
39 36 21 11 11 6 8 8 7 10 14 18 19 19 30 24 22 17 12 7 3 3 6 6 7 5 3 2 1 3 4 3 2 2 2 1 2 5 8 9 8 7 12 15 17 11 9
44 41 31 7 5 6 4 8 11 12 12 14 19 24 24 22 19 12 3 2 2 4 7 6 2 3 2 2 3 3 2 2 3 1 3 2 6 9 9 11 8 7 8 12 14 9 8
42 39 21 13 3 5 6 11 12 11 12 10 15 14 17 18 12 3 3 3 4 3 6 2 3 3 2 2 2 3 2 4 4 3 5 5 7 8 11 8 9 10 9 13 14 17 14
44 33 17 13 6 9 10 12 10 11 12 9 14 14 15 14 6 1 3 3 6 3 4 4 1 1 2 1 1 1 1 2 5 3 4 5 5 8 9 10 7 14 12 17 15 6 8
43 26 24 17 15 16 14 12 11 11 8 9 13 16 11 4 2 3 2 3 5 3 5 1 1 1 3 2 2 1 2 1 3 4 4 6 5 5 7 8 7 9 5 9 5 4 7
43 27 26 23 19 18 15 14 14 15 8 17 13 12 3 3 3 1 0 3 3 5 3 1 2 1 2 4 2 6 3 1 4 4 6 14 8 5 7 4 8 11 9 11 3 3 6
38 33 28 25 21 18 15 12 13 15 21 17 15 15 6 4 2 2 2 3 4 6 2 3 2 1 2 3 3 5 5 3 3 6 5 6 3 1 2 5 4 2 2 4 5 2 6
27 26 24 23 21 18 16 14 10 8 14 14 13 13 8 8 6 4 3 3 8 4 2 0 2 4 3 4 3 5 5 2 3 1 3 2 7 0 1 4 5 2 2 2 5 3 8
32 20 21 19 22 20 17 17 21 22 13 10 10 3 2 5 14 5 4 5 2 4 4 4 4 6 4 1 1 4 2 2 3 2 2 4 5 3 7 5 3 1 3 2 4 5 4
28 30 19 18 16 17 16 18 16 20 25 19 2 2 2 6 9 3 3 5 3 5 6 4 4 4 3 3 3 4 0 3 4 1 3 2 5 5 6 2 5 5 2 3 3 4 3
29 26 18 16 15 16 15 16 16 20 26 21 3 3 3 13 3 2 3 3 4 3 3 3 3 2 3 3 2 0 3 4 2 5 3 3 3 7 4 4 5 4 5 3 4 4 4
24 24 20 22 12 14 20 13 12 16 14 6 2 3 4 5 4 2 2 1 3 4 2 1 2 3 2 4 1 1 2 6 3 2 5 4 3 4 6 4 5 2 5 5 2 6 3
22 22 19 12 14 14 13 12 12 15 12 1 2 2 4 5 3 3 3 4 4 2 3 3 2 2 1 2 2 3 4 5 4 1 0 3 3 5 8 3 3 4 9 13 6 2 11
18 19 20 13 4 10 13 15 18 20 10 3 2 3 4 3 1 1 3 1 2 5 3 2 0 2 2 3 4 3 1 4 4 2 5 0 3 3 2 3 3 6 11 13 9 3 7
16 17 20 15 1 7 11 15 21 24 12 3 3 1 3 3 5 5 4 2 2 3 4 2 2 3 3 2 5 2 4 3 2 3 2 3 3 3 5 6 3 4 9 13 12 11 7
15 17 22 14 4 6 10 13 18 23 14 3 2 2 4 3 5 6 5 5 2 1 5 4 2 4 5 3 2 2 4 2 1 3 1 1 3 4 4 6 3 3 9 9 9 11 5
12 14 17 13 8 8 9 10 15 21 10 3 1 1 4 3 4 3 3 3 4 3 2 3 4 4 3 1 3 4 4 5 5 2 2 1 1 4 4 6 3 4 2 4 3 10 7
9 10 13 15 13 10 10 10 10 14 13 2 1 2 3 2 2 1 3 4 5 3 4 2 4 4 2 6 6 5 6 7 7 7 5 2 2 2 4 5 4 4 4 2 2 7 8
6 7 8 10 12 6 5 6 8 12 13 3 1 2 2 1 2 4 4 2 4 4 3 4 2 2 5 5 3 4 1 2 6 7 7 6 0 3 1 1 5 2 4 2 2 2 6
4 5 5 7 8 9 5 3 5 8 11 2 1 2 2 3 3 4 3 0 2 2 5 2 2 3 3 1 2 2 2 2 1 2 5 3 2 3 2 1 3 3 3 4 2 1 3
5 4 4 6 7 8 7 8 3 4 8 2 0 3 3 1 3 3 3 4 2 1 1 3 2 3 3 2 2 2 3 1 1 2 3 2 2 4 4 3 6 3 5 3 2 4 4
9 5 4 4 6 7 8 7 6 2 5 3 2 2 3 1 4 2 2 3 1 3 3 3 4 3 2 1 1 3 1 3 2 4 3 4 4 3 2 3 6 6 3 4 3 4 6
13 9 6 6 6 6 7 8 7 5 2 1 1 2 3 2 4 1 3 2 2 4 5 1 5 2 3 0 2 2 3 3 2 3 2 3 5 2 6 5 3 5 3 3 5 5 5
Wind_Direction
342 336 342 339 342 335 328 327 326 334 333 342 342 339 336 341 328 162 162 167 176 148 136 132 129 121 63 188 97 126 122 143 207 229 238 265 247 238 231 270 284 257 249 246 247 249 270
342 341 340 338 341 333 329 324 323 332 335 342 346 349 348 358 152 152 132 168 162 143 140 142 163 150 330 122 150 152 172 225 302 1 310 80 296 295 293 288 274 301 307 300 296 301 294
348 340 341 337 341 335 335 339 326 326 330 342 350 348 353 350 153 134 154 152 135 136 133 146 173 193 321 98 105 135 46 318 16 6 358 56 45 31 5 315 319 323 318 307 286 280 273
346 341 341 338 338 346 349 340 340 337 341 341 346 345 346 330 143 136 137 130 131 129 132 152 174 242 91 18 19 83 228 241 175 289 14 78 38 348 123 303 327 307 287 272 272 257 262
347 339 339 341 345 348 358 350 3 353 344 345 341 338 342 99 103 106 107 109 121 125 131 148 119 232 79 16 67 185 30 339 166 143 76 210 121 206 324 191 330 270 258 268 294 271 299
335 328 333 332 342 352 351 339 1 356 4 360 333 299 298 121 117 116 134 142 127 125 148 183 86 82 359 91 75 100 175 296 283 162 190 244 76 13 337 117 234 247 280 272 274 303 313
332 324 309 308 313 21 351 1 26 29 28 21 21 113 113 123 131 157 136 98 99 74 33 45 62 80 90 68 82 238 193 227 242 153 212 159 101 214 226 233 244 259 265 270 273 270 265
334 329 323 212 302 88 13 35 52 52 43 58 82 104 122 135 139 128 107 73 58 168 78 7 29 78 10 4 217 127 353 271 205 249 76 349 247 241 248 258 266 269 271 273 282 276 262
346 348 2 173 166 83 66 48 53 53 36 59 104 112 113 110 111 61 60 65 351 36 95 30 334 10 40 312 22 134 229 317 248 269 263 198 247 312 301 288 283 271 261 272 264 286 270
356 4 82 127 83 52 55 61 54 55 45 80 106 112 112 124 64 258 45 318 18 43 83 19 26 321 268 239 122 47 46 18 346 347 352 271 269 248 266 263 255 275 233 255 270 292 284
7 26 101 93 83 46 36 48 52 35 34 121 112 118 106 67 120 60 283 353 0 38 74 228 124 207 249 250 187 9 126 51 238 261 81 257 284 264 263 255 256 253 278 292 269 240 334
22 54 94 77 63 57 60 47 27 17 35 133 119 118 104 38 57 196 190 15 50 48 76 279 164 279 42 30 47 339 206 105 255 289 239 252 262 272 247 272 251 279 306 286 276 146 254
44 55 66 64 62 60 62 57 44 32 87 86 77 58 54 17 89 320 42 44 63 78 45 290 189 185 169 36 34 10 338 18 48 16 351 320 261 143 37 318 312 135 346 324 349 360 238
43 42 42 66 63 59 42 25 18 65 83 51 59 57 22 41 9 8 56 77 73 87 145 82 75 29 71 34 46 352 343 28 319 144 303 17 337 334 183 217 271 293 182 158 292 284 297
29 40 45 51 69 63 42 38 60 81 65 7 349 0 34 338 354 25 66 57 117 147 118 129 37 57 334 65 304 62 330 235 268 104 52 350 277 287 234 191 193 356 209 170 264 257 252
32 28 54 48 58 66 67 72 76 27 9 355 7 19 332 328 335 24 64 103 108 163 111 111 132 169 205 285 57 69 349 279 311 34 139 277 297 245 300 28 198 218 289 233 207 293 293
21 37 47 61 45 55 97 94 61 13 354 349 9 25 272 341 65 43 106 111 106 117 152 174 178 189 169 182 187 283 239 289 274 312 307 186 133 297 337 346 314 328 310 228 252 288 316
17 24 41 49 59 70 74 87 19 358 346 40 35 24 285 19 44 18 9 29 119 160 213 186 41 8 57 163 159 40 218 207 247 304 316 222 200 278 257 208 142 287 317 318 316 336 303
12 13 18 39 51 75 69 47 20 6 9 31 92 271 324 67 63 2 339 18 40 54 43 24 99 340 60 126 37 226 206 235 230 338 26 310 287 328 347 12 47 2 356 358 335 299 11
11 3 0 357 22 34 27 14 360 357 356 103 71 13 325 24 238 248 114 76 23 12 18 2 294 261 290 213 194 205 310 208 173 203 302 159 272 175 178 279 278 355 1 358 355 350 332
6 3 355 348 233 32 21 14 360 351 7 88 39 289 162 315 336 16 22 355 111 351 343 324 254 42 10 342 354 107 10 355 204 242 277 169 284 303 274 228 197 42 9 5 12 359 18
5 5 6 23 94 25 13 7 359 354 351 75 86 59 356 300 336 355 4 343 6 357 8 335 28 346 63 78 82 318 14 31 256 314 206 205 283 303 289 247 138 41 21 2 5 359 338
9 7 13 22 24 18 12 6 6 0 16 103 283 337 108 298 343 41 302 352 346 14 320 343 332 351 55 354 301 264 259 276 237 233 255 234 322 343 284 312 1 357 17 31 349 8 349
9 5 9 18 19 13 9 5 12 10 28 128 243 109 98 290 80 321 348 6 349 17 322 342 10 4 287 310 298 271 261 269 264 263 199 283 337 253 270 1 4 235 176 255 72 16 21
354 0 359 10 11 18 7 12 16 15 23 78 11 91 129 175 192 8 354 342 360 337 307 317 348 262 313 315 346 328 335 247 247 237 211 207 153 307 111 217 279 250 208 189 80 44 357
312 331 343 356 1 9 11 336 3 13 15 88 104 140 94 125 236 194 187 228 193 276 329 271 304 301 320 282 359 315 251 240 239 276 221 229 176 118 322 79 246 220 173 109 106 287 30
247 289 319 331 341 352 343 359 293 353 6 41 111 104 100 151 265 166 192 174 152 107 208 299 290 329 30 331 301 253 284 179 294 254 182 231 216 192 254 247 285 264 130 106 93 206 128
227 238 270 290 307 322 332 335 334 304 350 59 252 143 123 174 271 232 204 178 146 137 146 257 19 354 31 356 219 284 279 266 338 257 204 187 170 211 185 238 289 147 80 173 173 126 141
214 218 233 253 264 293 313 328 334 201 244 59 289 263 144 149 234 243 265 267 247 197 145 228 174 222 210 193 341 314 318 331 225 287 329 268 190 207 181 225 249 189 196 180 144 144 156